| time (UTC) | temp F | wind direction | speed MPH | gust MPH | rain 1hr in | rain 24hr in | rain mn in | humidity % | barometer mb |
| 20260901104516 | 88 | 58 | 2.0 | 8.0 | 0.00 | 0.00 | 0.00 | 33 | 1016.2 |
| 20260901103038 | 88 | 148 | 5.0 | 9.0 | 0.00 | 0.00 | 0.00 | 34 | 1016.2 |
| 20260901102518 | 88 | 16 | 4.0 | 12.0 | 0.00 | 0.00 | 0.00 | 34 | 1016.1 |
| 20260901102035 | 88 | 108 | 2.0 | 7.0 | 0.00 | 0.00 | 0.00 | 33 | 1016.2 |
| 20260901101033 | 87 | 98 | 5.0 | 9.0 | 0.00 | 0.00 | 0.00 | 37 | 1016.1 |
| 20260901095518 | 87 | 58 | 3.0 | 7.0 | 0.00 | 0.00 | 0.00 | 38 | 1016.2 |
| 20260901095040 | 87 | 114 | 3.0 | 8.0 | 0.00 | 0.00 | 0.00 | 39 | 1016.2 |
| 20260901094516 | 86 | 97 | 4.0 | 9.0 | 0.00 | 0.00 | 0.00 | 40 | 1016.2 |
| 20260901094037 | 86 | 79 | 6.0 | 9.0 | 0.00 | 0.00 | 0.00 | 41 | 1016.2 |
| 20260901093518 | 86 | 104 | 4.0 | 9.0 | 0.00 | 0.00 | 0.00 | 41 | 1016.2 |
| 20260901093038 | 85 | 74 | 3.0 | 9.0 | 0.00 | 0.00 | 0.00 | 42 | 1016.2 |
| 20260901092519 | 86 | 112 | 4.0 | 7.0 | 0.00 | 0.00 | 0.00 | 41 | 1016.3 |
| 20260901090515 | 85 | 139 | 3.0 | 8.0 | 0.00 | 0.00 | 0.00 | 43 | 1016.3 |
| 20260901090014 | 84 | 204 | 4.0 | 12.0 | 0.00 | 0.00 | 0.00 | 44 | 1016.3 |
| 20260901084518 | 84 | 172 | 3.0 | 9.0 | 0.00 | 0.00 | 0.00 | 45 | 1016.3 |
| 20260901084038 | 85 | 43 | 4.0 | 8.0 | 0.00 | 0.00 | 0.00 | 44 | 1016.3 |
| 20260901083516 | 84 | 68 | 5.0 | 8.0 | 0.00 | 0.00 | 0.00 | 45 | 1016.2 |
| 20260901083035 | 84 | 227 | 3.0 | 9.0 | 0.00 | 0.00 | 0.00 | 45 | 1016.2 |
| 20260901082517 | 84 | 349 | 3.0 | 5.0 | 0.00 | 0.00 | 0.00 | 44 | 1016.1 |
| 20260901081516 | 84 | 72 | 4.0 | 8.0 | 0.00 | 0.00 | 0.00 | 45 | 1016.1 |
| 20260901080514 | 84 | 32 | 5.0 | 9.0 | 0.00 | 0.00 | 0.00 | 44 | 1016.0 |
| 20260901080016 | 83 | 52 | 3.0 | 10.0 | 0.00 | 0.00 | 0.00 | 45 | 1016.0 |
| 20260901073520 | 82 | 69 | 5.0 | 9.0 | 0.00 | 0.00 | 0.00 | 45 | 1015.7 |
| 20260901073036 | 82 | 54 | 5.0 | 9.0 | 0.00 | 0.00 | 0.00 | 45 | 1015.6 |
| 20260901072517 | 82 | 64 | 5.0 | 10.0 | 0.00 | 0.00 | 0.00 | 46 | 1015.6 |
| 20260901071517 | 82 | 71 | 6.0 | 10.0 | 0.00 | 0.00 | 0.00 | 46 | 1015.4 |
| 20260901071034 | 82 | 29 | 4.0 | 10.0 | 0.00 | 0.00 | 0.00 | 44 | 1015.4 |
| 20260901070014 | 81 | 76 | 5.0 | 13.0 | 0.00 | 0.00 | 0.00 | 43 | 1015.4 |
| 20260901065516 | 81 | 129 | 3.0 | 8.0 | 0.00 | 0.00 | 0.00 | 47 | 1015.4 |
| 20260901065038 | 80 | 268 | 6.0 | 12.0 | 0.00 | 0.00 | 0.00 | 46 | 1015.4 |
| 20260901064037 | 77 | 142 | 5.0 | 8.0 | 0.00 | 0.00 | 0.00 | 57 | 1015.1 |
| 20260901063516 | 78 | 95 | 4.0 | 8.0 | 0.00 | 0.00 | 0.00 | 56 | 1015.3 |
| 20260901062516 | 78 | 128 | 2.0 | 9.0 | 0.00 | 0.00 | 0.00 | 53 | 1015.2 |
| 20260901062038 | 77 | 169 | 2.0 | 7.0 | 0.00 | 0.00 | 0.00 | 55 | 1015.1 |
| 20260901061516 | 77 | 180 | 3.0 | 7.0 | 0.00 | 0.00 | 0.00 | 55 | 1015.1 |
| 20260901060514 | 76 | 141 | 3.0 | 5.0 | 0.00 | 0.00 | 0.00 | 55 | 1015.0 |
| 20260901055039 | 79 | 40 | 5.0 | 9.0 | 0.00 | 0.00 | 0.00 | 45 | 1014.9 |
| 20260901054516 | 78 | 64 | 5.0 | 12.0 | 0.00 | 0.00 | 0.00 | 47 | 1014.9 |
| 20260901054038 | 78 | 102 | 3.0 | 7.0 | 0.00 | 0.00 | 0.00 | 48 | 1014.8 |
| 20260901052519 | 77 | 64 | 4.0 | 7.0 | 0.00 | 0.00 | 0.00 | 52 | 1014.8 |
| 20260901051516 | 76 | 11 | 6.0 | 12.0 | 0.00 | 0.00 | 0.00 | 52 | 1014.9 |
| 20260901050515 | 76 | 131 | 3.0 | 8.0 | 0.00 | 0.00 | 0.00 | 51 | 1014.9 |
| 20260901044036 | 75 | 98 | 2.0 | 3.0 | 0.00 | 0.00 | 0.00 | 54 | 1014.6 |
| 20260901042033 | 74 | 117 | 4.0 | 8.0 | 0.00 | 0.00 | 0.00 | 54 | 1014.5 |
| 20260901041034 | 75 | 89 | 2.0 | 3.0 | 0.00 | 0.00 | 0.00 | 53 | 1014.6 |
| 20260901040516 | 75 | 314 | 2.0 | 3.0 | 0.00 | 0.00 | 0.00 | 53 | 1014.6 |
| 20260901040014 | 75 | 326 | 2.0 | 5.0 | 0.00 | 0.00 | 0.00 | 53 | 1014.6 |
| 20260901035515 | 75 | 87 | 3.0 | 6.0 | 0.00 | 0.00 | 0.00 | 53 | 1014.5 |
| 20260901035025 | 76 | 98 | 3.0 | 9.0 | 0.00 | 0.00 | 0.00 | 52 | 1014.4 |
| 20260901034025 | 76 | 99 | 1.0 | 3.0 | 0.00 | 0.00 | 0.00 | 48 | 1014.3 |
| 20260901033026 | 76 | 29 | 5.0 | 13.0 | 0.00 | 0.00 | 0.00 | 48 | 1014.3 |
| 20260901032515 | 76 | 42 | 3.0 | 9.0 | 0.00 | 0.00 | 0.00 | 47 | 1014.3 |
| 20260901032033 | 76 | 67 | 5.0 | 9.0 | 0.00 | 0.00 | 0.00 | 47 | 1014.3 |
| 20260901031515 | 76 | 73 | 5.0 | 12.0 | 0.00 | 0.00 | 0.00 | 46 | 1014.3 |
| 20260901031023 | 76 | 64 | 5.0 | 10.0 | 0.00 | 0.00 | 0.00 | 45 | 1014.3 |
| 20260901030016 | 77 | 91 | 5.0 | 10.0 | 0.00 | 0.00 | 0.00 | 43 | 1014.3 |
| 20260901025024 | 76 | 60 | 5.0 | 8.0 | 0.00 | 0.00 | 0.00 | 43 | 1014.4 |
| 20260901024025 | 76 | 83 | 3.0 | 9.0 | 0.00 | 0.00 | 0.00 | 43 | 1014.2 |
| 20260901022515 | 75 | 4 | 3.0 | 5.0 | 0.00 | 0.00 | 0.00 | 44 | 1014.2 |
| 20260901021024 | 75 | 246 | 2.0 | 3.0 | 0.00 | 0.00 | 0.00 | 44 | 1014.2 |
| 20260901020514 | 75 | 339 | 2.0 | 7.0 | 0.00 | 0.00 | 0.00 | 42 | 1014.0 |
| 20260901015515 | 72 | 64 | 3.0 | 8.0 | 0.00 | 0.00 | 0.00 | 55 | 1014.0 |
| 20260901015024 | 71 | 54 | 2.0 | 8.0 | 0.00 | 0.00 | 0.00 | 64 | 1014.3 |
| 20260901012025 | 70 | 348 | 0.0 | 2.0 | 0.00 | 0.00 | 0.00 | 70 | 1014.8 |
| 20260901010013 | 71 | 329 | 1.0 | 3.0 | 0.00 | 0.00 | 0.00 | 69 | 1014.8 |
| 20260901005024 | 72 | 291 | 1.0 | 3.0 | 0.00 | 0.00 | 0.00 | 68 | 1014.9 |
| 20260901004516 | 73 | 307 | 2.0 | 3.0 | 0.00 | 0.00 | 0.00 | 66 | 1015.0 |
| 20260901003024 | 73 | 258 | 3.0 | 6.0 | 0.00 | 0.00 | 0.00 | 66 | 1015.0 |
| 20260901001515 | 73 | 255 | 3.0 | 9.0 | 0.00 | 0.00 | 0.00 | 64 | 1015.0 |
| 20260831232515 | 73 | 318 | 4.0 | 10.0 | 0.00 | 0.00 | 0.00 | 65 | 1015.3 |
| 20260831231515 | 73 | 280 | 6.0 | 12.0 | 0.00 | 0.00 | 0.00 | 64 | 1015.3 |
| 20260831225024 | 72 | 299 | 5.0 | 10.0 | 0.00 | 0.00 | 0.00 | 69 | 1015.4 |
| 20260831224514 | 72 | 299 | 5.0 | 8.0 | 0.00 | 0.00 | 0.00 | 69 | 1015.4 |
| 20260831224024 | 72 | 275 | 3.0 | 6.0 | 0.00 | 0.00 | 0.00 | 69 | 1015.4 |
| 20260831223516 | 73 | 262 | 3.0 | 8.0 | 0.00 | 0.00 | 0.00 | 67 | 1015.2 |
| 20260831223024 | 74 | 283 | 6.0 | 8.0 | 0.00 | 0.00 | 0.00 | 66 | 1015.0 |
| 20260831222514 | 74 | 285 | 3.0 | 6.0 | 0.00 | 0.00 | 0.00 | 65 | 1014.7 |
| 20260831222024 | 75 | 291 | 3.0 | 6.0 | 0.00 | 0.00 | 0.00 | 65 | 1014.7 |
| 20260831221515 | 75 | 299 | 1.0 | 3.0 | 0.00 | 0.00 | 0.00 | 65 | 1014.6 |
| 20260831221026 | 75 | 274 | 1.0 | 3.0 | 0.00 | 0.00 | 0.00 | 66 | 1014.7 |
| 20260831220017 | 76 | 324 | 2.0 | 3.0 | 0.00 | 0.00 | 0.00 | 65 | 1014.7 |
| 20260831215025 | 76 | 284 | 1.0 | 3.0 | 0.00 | 0.00 | 0.00 | 65 | 1014.7 |
| 20260831214514 | 76 | 273 | 2.0 | 3.0 | 0.00 | 0.00 | 0.00 | 65 | 1014.7 |
| 20260831213024 | 76 | 274 | 1.0 | 3.0 | 0.00 | 0.00 | 0.00 | 65 | 1014.7 |
| 20260831212024 | 76 | 270 | 2.0 | 6.0 | 0.00 | 0.00 | 0.00 | 65 | 1014.7 |
| 20260831210515 | 77 | 332 | 2.0 | 3.0 | 0.00 | 0.00 | 0.00 | 65 | 1014.9 |
| 20260831210015 | 77 | 274 | 2.0 | 3.0 | 0.00 | 0.00 | 0.00 | 65 | 1014.9 |
| 20260831205515 | 78 | 268 | 2.0 | 3.0 | 0.00 | 0.00 | 0.00 | 63 | 1014.8 |
| 20260831204515 | 78 | 297 | 0.0 | 1.0 | 0.00 | 0.00 | 0.00 | 63 | 1014.7 |
| 20260831204024 | 78 | 297 | 0.0 | 2.0 | 0.00 | 0.00 | 0.00 | 63 | 1014.7 |
| 20260831200015 | 79 | 112 | 3.0 | 6.0 | 0.00 | 0.00 | 0.00 | 63 | 1014.7 |
| 20260831195514 | 79 | 81 | 2.0 | 5.0 | 0.00 | 0.00 | 0.00 | 63 | 1014.7 |
| 20260831195025 | 78 | 87 | 1.0 | 3.0 | 0.00 | 0.00 | 0.00 | 64 | 1014.6 |
| 20260831194515 | 79 | 103 | 3.0 | 5.0 | 0.00 | 0.00 | 0.00 | 64 | 1014.5 |
| 20260831193515 | 79 | 93 | 2.0 | 7.0 | 0.00 | 0.00 | 0.00 | 64 | 1014.5 |
| 20260831192024 | 79 | 42 | 5.0 | 8.0 | 0.00 | 0.00 | 0.00 | 65 | 1014.3 |
| 20260831190514 | 79 | 83 | 2.0 | 5.0 | 0.00 | 0.00 | 0.00 | 67 | 1014.3 |
| 20260831190015 | 79 | 64 | 3.0 | 5.0 | 0.00 | 0.00 | 0.00 | 66 | 1014.3 |
| 20260831185514 | 79 | 87 | 4.0 | 8.0 | 0.00 | 0.00 | 0.00 | 66 | 1014.2 |
| 20260831185025 | 79 | 39 | 4.0 | 9.0 | 0.00 | 0.00 | 0.00 | 66 | 1014.1 |
| 20260831183514 | 80 | 60 | 5.0 | 9.0 | 0.00 | 0.00 | 0.00 | 67 | 1014.0 |
| 20260831183025 | 80 | 59 | 5.0 | 8.0 | 0.00 | 0.00 | 0.00 | 66 | 1014.0 |
| 20260831182024 | 80 | 62 | 5.0 | 10.0 | 0.00 | 0.00 | 0.00 | 65 | 1013.9 |
| 20260831180515 | 80 | 63 | 5.0 | 9.0 | 0.00 | 0.00 | 0.00 | 66 | 1013.7 |
| 20260831174517 | 82 | 60 | 3.0 | 8.0 | 0.00 | 0.00 | 0.00 | 65 | 1013.7 |
| 20260831173516 | 82 | 53 | 2.0 | 7.0 | 0.00 | 0.00 | 0.00 | 63 | 1013.6 |
| 20260831173035 | 82 | 67 | 5.0 | 12.0 | 0.00 | 0.00 | 0.00 | 63 | 1013.6 |
| 20260831172038 | 83 | 47 | 7.0 | 14.0 | 0.00 | 0.00 | 0.00 | 63 | 1013.4 |
| 20260831170019 | 84 | 44 | 5.0 | 10.0 | 0.00 | 0.00 | 0.00 | 61 | 1013.4 |
| 20260831165518 | 85 | 79 | 5.0 | 12.0 | 0.00 | 0.00 | 0.00 | 61 | 1013.3 |
| 20260831164034 | 86 | 26 | 5.0 | 12.0 | 0.00 | 0.00 | 0.00 | 59 | 1013.2 |
| 20260831161518 | 87 | 50 | 6.0 | 13.0 | 0.00 | 0.00 | 0.00 | 56 | 1013.1 |
| 20260831160016 | 89 | 60 | 5.0 | 10.0 | 0.00 | 0.00 | 0.00 | 51 | 1013.2 |
| 20260831155035 | 92 | 9 | 1.0 | 3.0 | 0.00 | 0.00 | 0.00 | 46 | 1013.1 |
| 20260831153518 | 92 | 38 | 6.0 | 13.0 | 0.00 | 0.00 | 0.00 | 41 | 1013.1 |
| 20260831152517 | 93 | 274 | 8.0 | 17.0 | 0.00 | 0.00 | 0.00 | 39 | 1012.8 |
| 20260831151037 | 93 | 256 | 9.0 | 15.0 | 0.00 | 0.00 | 0.00 | 38 | 1012.8 |
| 20260831150518 | 93 | 242 | 6.0 | 17.0 | 0.00 | 0.00 | 0.00 | 39 | 1012.8 |
| 20260831150017 | 93 | 250 | 10.0 | 20.0 | 0.00 | 0.00 | 0.00 | 37 | 1012.8 |
| 20260831145517 | 93 | 268 | 10.0 | 17.0 | 0.00 | 0.00 | 0.00 | 37 | 1012.8 |
| 20260831144516 | 93 | 260 | 9.0 | 21.0 | 0.00 | 0.00 | 0.00 | 36 | 1012.8 |
| 20260831143518 | 93 | 276 | 10.0 | 17.0 | 0.00 | 0.00 | 0.00 | 37 | 1012.9 |
| 20260831143033 | 93 | 218 | 11.0 | 16.0 | 0.00 | 0.00 | 0.00 | 37 | 1012.9 |
| 20260831142038 | 94 | 210 | 4.0 | 15.0 | 0.00 | 0.00 | 0.00 | 36 | 1013.0 |
| 20260831141514 | 93 | 276 | 9.0 | 17.0 | 0.00 | 0.00 | 0.00 | 37 | 1013.0 |
| 20260831135514 | 94 | 226 | 9.0 | 17.0 | 0.00 | 0.00 | 0.00 | 36 | 1013.2 |
| 20260831135032 | 95 | 256 | 10.0 | 18.0 | 0.00 | 0.00 | 0.00 | 34 | 1013.2 |
| 20260831134032 | 94 | 247 | 12.0 | 18.0 | 0.00 | 0.00 | 0.00 | 34 | 1013.2 |
| 20260831133034 | 94 | 260 | 8.0 | 15.0 | 0.00 | 0.00 | 0.00 | 34 | 1013.3 |
| 20260831131034 | 93 | 258 | 10.0 | 18.0 | 0.00 | 0.00 | 0.00 | 38 | 1013.6 |
| 20260831125516 | 93 | 247 | 7.0 | 15.0 | 0.00 | 0.00 | 0.00 | 42 | 1013.6 |
| 20260831125032 | 93 | 233 | 8.0 | 20.0 | 0.00 | 0.00 | 0.00 | 42 | 1013.6 |
| 20260831124515 | 93 | 210 | 11.0 | 16.0 | 0.00 | 0.00 | 0.00 | 42 | 1013.7 |
| 20260831124032 | 93 | 209 | 9.0 | 16.0 | 0.00 | 0.00 | 0.00 | 43 | 1013.7 |
| 20260831121515 | 94 | 206 | 8.0 | 16.0 | 0.00 | 0.00 | 0.00 | 43 | 1013.9 |
| 20260831121033 | 93 | 293 | 6.0 | 21.0 | 0.00 | 0.00 | 0.00 | 41 | 1013.8 |
| 20260831120515 | 94 | 254 | 8.0 | 16.0 | 0.00 | 0.00 | 0.00 | 42 | 1013.9 |
| 20260831120016 | 94 | 206 | 7.0 | 20.0 | 0.00 | 0.00 | 0.00 | 42 | 1014.0 |
| 20260831115514 | 95 | 226 | 6.0 | 17.0 | 0.00 | 0.00 | 0.00 | 40 | 1014.0 |
| 20260831115032 | 93 | 258 | 7.0 | 16.0 | 0.00 | 0.00 | 0.00 | 43 | 1014.0 |
| 20260831114032 | 95 | 234 | 10.0 | 16.0 | 0.00 | 0.00 | 0.00 | 39 | 1014.2 |
| 20260831113515 | 93 | 232 | 6.0 | 14.0 | 0.00 | 0.00 | 0.00 | 43 | 1014.1 |
| 20260831111514 | 93 | 130 | 7.0 | 17.0 | 0.00 | 0.00 | 0.00 | 42 | 1014.2 |
| 20260831111033 | 93 | 249 | 7.0 | 15.0 | 0.00 | 0.00 | 0.00 | 42 | 1014.2 |